Weather observations for the past three days for
Everett Snohomish County
| Date | Time (pdt) | Wind (mph) | Vis. (mi.) | Weather | Sky Cond. | Temperature (ºF) | Relative Humidity | Wind Chill (°F) | Heat Index (°F) | Pressure | Precipitation (in) | ||||||
|---|---|---|---|---|---|---|---|---|---|---|---|---|---|---|---|---|---|
| Air | Dwpt | 6 hour | altimeter (in) | sea level (mb) | 1 hr | 3 hr | 6 hr | ||||||||||
| Max. | Min. | ||||||||||||||||
| 31 | 06:53 | Calm | 6.00 | Fog/Mist | BKN003 | 55 | 54 | 96% | 29.96 | 1014.3 | |||||||
| 31 | 05:53 | N 5 | 10.00 | Overcast | OVC003 | 55 | 53.1 | 93% | 29.96 | 1014.4 | |||||||
| 31 | 04:53 | N 3 | 6.00 | Fog/Mist | OVC001 | 55 | 54 | 57.9 | 55 | 96% | 29.97 | 1014.9 | |||||
| 31 | 03:53 | N 5 | 7.00 | Overcast | OVC003 | 55 | 54 | 96% | 29.98 | 1015.2 | |||||||
| 31 | 02:53 | N 3 | 9.00 | A Few Clouds | FEW005 | 55 | 54 | 96% | 30 | 1015.9 | |||||||
| 31 | 01:53 | N 5 | 9.00 | Fair | CLR | 55 | 54 | 96% | 30.02 | 1016.4 | |||||||
| 31 | 00:53 | N 5 | 10.00 | Fair | CLR | 55.9 | 54 | 93% | 30.03 | 1016.7 | |||||||
| 30 | 23:53 | N 6 | 10.00 | Fair | CLR | 57 | 53.1 | 87% | 30.04 | 1017.2 | |||||||
| 30 | 22:53 | N 5 | 10.00 | Fair | CLR | 57.9 | 52 | 66.9 | 57.9 | 81% | 30.06 | 1017.6 | |||||
| 30 | 21:53 | N 5 | 10.00 | Fair | CLR | 59 | 51.1 | 75% | 30.07 | 1018.2 | |||||||
| 30 | 20:53 | N 7 | 10.00 | Fair | CLR | 60.1 | 50 | 70% | 30.08 | 1018.3 | |||||||
| 30 | 19:53 | N 6 | 10.00 | Overcast | OVC050 | 62.1 | 50 | 65% | 30.08 | 1018.3 | |||||||
| 30 | 18:53 | N 7 | 10.00 | Mostly Cloudy | BKN050 | 63 | 50 | 63% | 30.08 | 1018.5 | |||||||
| 30 | 17:53 | NW 3 | 10.00 | Overcast | OVC050 | 66 | 48 | 52% | 30.1 | 1019.0 | |||||||
| 30 | 16:53 | W 6 | 10.00 | Overcast | OVC060 | 66 | 48 | 68 | 59 | 52% | 30.1 | 1019.2 | |||||
| 30 | 15:53 | Vrbl 5 | 10.00 | Mostly Cloudy | BKN060 | 66.9 | 48.9 | 53% | 30.11 | 1019.5 | |||||||
| 30 | 14:53 | W 9 | 10.00 | Mostly Cloudy | BKN070 | 66 | 50 | 56% | 30.12 | 1019.9 | |||||||
| 30 | 13:53 | Vrbl 6 | 10.00 | Mostly Cloudy | BKN070 BKN085 | 66 | 51.1 | 59% | 30.13 | 1020.1 | |||||||
| 30 | 12:53 | Vrbl 5 | 10.00 | Mostly Cloudy | BKN070 | 64 | 51.1 | 63% | 30.14 | 1020.5 | |||||||
| 30 | 11:53 | W 7 | 10.00 | Mostly Cloudy | SCT038 BKN048 | 61 | 51.1 | 70% | 30.15 | 1020.8 | |||||||
| 30 | 09:53 | W 3 | 10.00 | Overcast | BKN021 OVC045 | 57.9 | 52 | 81% | 30.14 | 1020.8 | |||||||
| 30 | 08:53 | S 7 | 10.00 | Mostly Cloudy | BKN023 | 59 | 50 | 72% | 30.14 | 1020.6 | |||||||
| 30 | 07:53 | S 5 | 10.00 | Overcast | FEW027 OVC038 | 57 | 51.1 | 81% | 30.14 | 1020.5 | |||||||
| 30 | 06:53 | SE 3 | 10.00 | Overcast | OVC036 | 55.9 | 51.1 | 84% | 30.13 | 1020.1 | |||||||
| 30 | 05:53 | E 5 | 10.00 | Mostly Cloudy | BKN034 | 55.9 | 50 | 81% | 30.13 | 1020.1 | |||||||
| 30 | 04:53 | Calm | 10.00 | Overcast | OVC038 | 57 | 50 | 57 | 55 | 78% | 30.13 | 1020.2 | |||||
| 30 | 03:53 | E 5 | 10.00 | Overcast | OVC034 | 57 | 48.9 | 74% | 30.13 | 1020.0 | |||||||
| 30 | 02:53 | Calm | 10.00 | Overcast | OVC033 | 55.9 | 50 | 81% | 30.13 | 1020.1 | |||||||
| 30 | 01:53 | NE 5 | 10.00 | Overcast | OVC037 | 55.9 | 50 | 81% | 30.12 | 1019.9 | |||||||
| 30 | 00:53 | N 6 | 10.00 | Overcast | OVC035 | 55.9 | 50 | 81% | 30.12 | 1019.8 | |||||||
| 29 | 23:53 | N 7 | 10.00 | A Few Clouds | FEW035 | 55.9 | 50 | 81% | 30.11 | 1019.8 | |||||||
| 29 | 22:53 | N 7 | 10.00 | Overcast | OVC042 | 55.9 | 50 | 64 | 55.9 | 81% | 30.11 | 1019.6 | |||||
| 29 | 21:53 | N 8 | 10.00 | Overcast | OVC043 | 57 | 51.1 | 81% | 30.1 | 1019.4 | |||||||
| 29 | 20:53 | N 6 | 10.00 | Mostly Cloudy | FEW040 BKN060 BKN080 | 60.1 | 51.1 | 72% | 30.09 | 1019.0 | |||||||
| 29 | 19:53 | N 5 | 10.00 | Mostly Cloudy | BKN085 | 62.1 | 48.9 | 62% | 30.07 | 1018.4 | |||||||
| 29 | 18:53 | N 6 | 10.00 | Overcast | BKN047 OVC055 | 63 | 50 | 63% | 30.07 | 1018.1 | |||||||
| 29 | 17:53 | Calm | 10.00 | Overcast | SCT055 OVC085 | 64 | 51.1 | 63% | 30.07 | 1018.0 | |||||||
| 29 | 16:53 | NE 5 | 10.00 | Mostly Cloudy | BKN060 | 64 | 52 | 64.9 | 55.9 | 65% | 30.07 | 1018.0 | |||||
| 29 | 15:53 | N 7 | 10.00 | Fair | CLR | 64 | 52 | 65% | 30.07 | 1018.3 | |||||||
| 29 | 14:53 | Vrbl 3 | 10.00 | Overcast | BKN029 BKN036 OVC044 | 64 | 50 | 60% | 30.07 | 1018.3 | |||||||
| 29 | 12:53 | SW 3 | 10.00 | Mostly Cloudy | SCT008 BKN016 | 61 | 52 | 72% | 30.07 | 1018.0 | |||||||
| 29 | 11:53 | Vrbl 5 | 10.00 | Overcast | BKN007 BKN036 OVC065 | 57 | 53.1 | 87% | 30.05 | 1017.6 | |||||||
| 29 | 10:53 | NW 6 | 10.00 | Light Rain | BKN007 BKN036 OVC065 | 55.9 | 53.1 | 55.9 | 53.1 | 90% | 30.05 | 1017.5 | 0.41 | ||||
| 29 | 09:53 | N 5 | 10.00 | Overcast | BKN004 OVC024 | 55 | 53.1 | 93% | 30.04 | 1017.2 | |||||||
| 29 | 08:53 | Calm | 10.00 | Overcast | BKN045 BKN060 OVC075 | 54 | 52 | 93% | 30.02 | 1016.6 | |||||||
| 29 | 07:53 | NW 8 | 7.00 | Light Rain | BKN007 BKN017 OVC060 | 53.1 | 52 | 96% | 30.01 | 1016.2 | 0.09 | 0.41 | |||||
| 29 | 06:53 | Calm | 4.00 | Light Rain | OVC005 | 54 | 53.1 | 97% | 30.01 | 1016.3 | 0.2 | ||||||
| 29 | 05:53 | NW 5 | 4.00 | Rain Fog/Mist | BKN006 BKN012 OVC020 | 54 | 52 | 93% | 30 | 1016.0 | 0.12 | ||||||
| 29 | 04:53 | W 7 | 6.00 | Light Rain Fog/Mist | OVC006 | 54 | 53.1 | 57 | 54 | 97% | 30 | 1015.8 | 0.06 | 0.06 | |||
| 29 | 03:53 | W 5 | 10.00 | Overcast | BKN010 OVC044 | 55 | 52 | 90% | 30 | 1015.9 | |||||||
| 29 | 02:53 | Calm | 10.00 | Overcast | BKN013 OVC044 | 55 | 52 | 90% | 30 | 1015.9 | |||||||
| 29 | 01:53 | N 5 | 10.00 | Overcast | BKN037 OVC046 | 55 | 51.1 | 87% | 30.01 | 1016.0 | |||||||
| 29 | 00:53 | N 7 | 10.00 | Overcast | OVC040 | 55.9 | 50 | 81% | 30.01 | 1016.2 | |||||||
| 28 | 23:53 | N 7 | 10.00 | Overcast | OVC035 | 57 | 52 | 83% | 30.01 | 1016.0 | |||||||
| 28 | 22:53 | N 6 | 10.00 | Overcast | OVC037 | 57 | 54 | 64.9 | 57 | 90% | 30.01 | 1016.0 | |||||
| 28 | 21:53 | N 8 | 10.00 | Overcast | OVC070 | 57.9 | 54 | 87% | 30.01 | 1016.1 | |||||||
| 28 | 20:53 | Vrbl 5 | 10.00 | Overcast | SCT035 OVC046 | 59 | 53.1 | 81% | 30.01 | 1016.1 | |||||||
| 28 | 19:53 | N 6 | 10.00 | Overcast | BKN050 OVC070 | 60.1 | 52 | 75% | 30.01 | 1016.0 | |||||||
| 28 | 18:53 | N 6 | 10.00 | Overcast | OVC060 | 61 | 52 | 72% | 30.01 | 1016.0 | |||||||
| 28 | 17:53 | N 9 | 10.00 | Mostly Cloudy | BKN065 | 62.1 | 52 | 70% | 30.01 | 1016.0 | |||||||
| 28 | 16:53 | N 9 | 10.00 | Overcast | OVC060 | 64 | 53.1 | 69.1 | 62.1 | 68% | 30.02 | 1016.4 | |||||
| 28 | 15:53 | SW 7 | 10.00 | Mostly Cloudy | BKN060 | 66.9 | 53.1 | 61% | 30.03 | 1016.9 | |||||||
| 28 | 14:53 | W 9 | 10.00 | Mostly Cloudy | BKN055 | 64.9 | 54 | 68% | 30.04 | 1017.2 | |||||||
| 28 | 13:53 | Vrbl 3 | 10.00 | Mostly Cloudy | BKN050 | 66 | 53.1 | 63% | 30.06 | 1017.7 | |||||||
| 28 | 12:53 | N 6 | 10.00 | Partly Cloudy | SCT023 SCT050 | 64.9 | 53.1 | 66% | 30.06 | 1018.0 | |||||||
| 28 | 11:53 | N 7 | 10.00 | Mostly Cloudy | SCT019 BKN050 | 64 | 54 | 70% | 30.07 | 1018.2 | |||||||
| 28 | 10:53 | N 7 | 10.00 | Overcast | FEW024 OVC049 | 62.1 | 53.1 | 62.1 | 57.9 | 73% | 30.08 | 1018.5 | |||||
| 28 | 09:53 | N 6 | 10.00 | Mostly Cloudy | SCT022 BKN055 | 60.1 | 54 | 80% | 30.08 | 1018.6 | |||||||
| 28 | 08:53 | Vrbl 5 | 10.00 | Mostly Cloudy | BKN014 | 59 | 54 | 83% | 30.09 | 1018.7 | |||||||
| 28 | 07:53 | N 7 | 10.00 | Overcast | BKN014 OVC050 | 57.9 | 55 | 90% | 30.08 | 1018.6 | |||||||
| Date | Time (pdt) | Wind (mph) | Vis. (mi.) | Weather | Sky Cond. | Air | Dwpt | Max. | Min. | Relative Humidity | Wind Chill (°F) | Heat Index (°F) | altimeter (in) | sea level (mb) | 1 hr | 3 hr | 6 hr |
| 6 hour | |||||||||||||||||
| Temperature (ºF) | Pressure | Precipitation (in) | |||||||||||||||